QPF
0.04 0.03 0.03 0.03 0.04 0.02 0.02 0.02 0.02 0.02 0.03 0.04 0.05 0.05 0.07 0.08 0.08 0.08 0.11 0.07 0.05 0.04 0.04 0.05 0.04 0.03 0.03 0.03 0.03 0.03 0.02 0.02 0.02 0.03 0.04 0.04 0.04 0.04 0.04 0.04 0.03 0.03 0.04
0.04 0.03 0.03 0.03 0.03 0.02 0.02 0.03 0.05 0.03 0.03 0.04 0.05 0.06 0.08 0.07 0.06 0.05 0.06 0.07 0.06 0.03 0.04 0.05 0.06 0.05 0.04 0.03 0.04 0.06 0.05 0.04 0.04 0.05 0.04 0.04 0.04 0.04 0.04 0.04 0.04 0.04 0.05
0.04 0.04 0.04 0.02 0.01 0.01 0.02 0.01 0.02 0.02 0.02 0.02 0.04 0.05 0.06 0.05 0.05 0.04 0.04 0.04 0.03 0.03 0.03 0.04 0.05 0.04 0.05 0.05 0.05 0.06 0.06 0.07 0.07 0.06 0.03 0.02 0.03 0.04 0.04 0.04 0.04 0.04 0.05
0.05 0.05 0.03 0.02 0.01 0.01 0.01 0.01 0.02 0.03 0.04 0.02 0.04 0.06 0.04 0.03 0.04 0.04 0.04 0.03 0.03 0.04 0.03 0.04 0.05 0.05 0.05 0.05 0.06 0.06 0.06 0.07 0.06 0.06 0.04 0.03 0.03 0.04 0.04 0.04 0.04 0.04 0.04
0.07 0.06 0.04 0.02 0.02 0.01 0.02 0.02 0.02 0.03 0.04 0.03 0.03 0.04 0.04 0.05 0.04 0.04 0.04 0.03 0.03 0.03 0.04 0.03 0.04 0.04 0.05 0.06 0.07 0.06 0.07 0.06 0.05 0.06 0.06 0.05 0.04 0.04 0.04 0.04 0.03 0.03 0.03
0.06 0.04 0.03 0.04 0.03 0.03 0.03 0.03 0.03 0.04 0.04 0.03 0.03 0.03 0.04 0.05 0.04 0.04 0.04 0.03 0.02 0.02 0.03 0.03 0.03 0.04 0.04 0.05 0.05 0.04 0.05 0.06 0.06 0.07 0.07 0.06 0.05 0.04 0.05 0.06 0.05 0.04 0.03
0.03 0.03 0.04 0.04 0.04 0.04 0.04 0.03 0.04 0.05 0.05 0.04 0.04 0.04 0.05 0.04 0.03 0.02 0.04 0.04 0.03 0.03 0.04 0.04 0.04 0.03 0.04 0.04 0.03 0.03 0.04 0.04 0.05 0.06 0.06 0.06 0.06 0.06 0.06 0.06 0.05 0.05 0.03
0.02 0.02 0.03 0.03 0.04 0.06 0.04 0.04 0.04 0.03 0.03 0.03 0.05 0.05 0.05 0.06 0.03 0.02 0.03 0.05 0.05 0.04 0.04 0.04 0.04 0.04 0.04 0.03 0.02 0.02 0.03 0.03 0.04 0.04 0.05 0.07 0.07 0.07 0.06 0.05 0.05 0.05 0.04
0.04 0.04 0.04 0.04 0.06 0.06 0.05 0.04 0.04 0.03 0.03 0.03 0.04 0.05 0.05 0.05 0.04 0.03 0.04 0.06 0.05 0.04 0.03 0.03 0.04 0.04 0.04 0.04 0.04 0.04 0.05 0.05 0.04 0.04 0.05 0.06 0.06 0.06 0.07 0.08 0.06 0.04 0.04
0.05 0.05 0.04 0.04 0.05 0.06 0.07 0.07 0.05 0.05 0.04 0.03 0.03 0.05 0.05 0.05 0.05 0.05 0.04 0.05 0.04 0.05 0.05 0.04 0.03 0.04 0.04 0.05 0.06 0.06 0.07 0.07 0.05 0.04 0.04 0.04 0.05 0.05 0.06 0.06 0.06 0.06 0.06
0.05 0.06 0.06 0.06 0.07 0.07 0.06 0.06 0.06 0.04 0.03 0.03 0.04 0.05 0.06 0.07 0.07 0.06 0.05 0.05 0.03 0.03 0.04 0.05 0.04 0.03 0.04 0.07 0.08 0.06 0.04 0.03 0.04 0.04 0.03 0.04 0.04 0.04 0.06 0.07 0.08 0.09 0.08
0.04 0.04 0.05 0.05 0.05 0.06 0.06 0.06 0.05 0.04 0.05 0.04 0.03 0.03 0.04 0.05 0.04 0.05 0.06 0.05 0.04 0.03 0.02 0.03 0.05 0.05 0.06 0.07 0.06 0.07 0.05 0.04 0.03 0.03 0.03 0.03 0.02 0.03 0.04 0.06 0.07 0.08 0.08
0.03 0.03 0.03 0.04 0.04 0.06 0.08 0.08 0.05 0.03 0.03 0.03 0.02 0.02 0.03 0.03 0.04 0.04 0.05 0.04 0.04 0.05 0.03 0.03 0.06 0.08 0.07 0.07 0.06 0.07 0.06 0.07 0.05 0.04 0.03 0.03 0.02 0.02 0.02 0.06 0.08 0.08 0.08
0.02 0.03 0.02 0.02 0.03 0.04 0.04 0.04 0.03 0.03 0.03 0.02 0.02 0.03 0.02 0.02 0.03 0.04 0.04 0.04 0.04 0.06 0.06 0.06 0.07 0.10 0.09 0.06 0.06 0.08 0.08 0.08 0.07 0.04 0.03 0.02 0.02 0.02 0.02 0.04 0.08 0.07 0.06
0.01 0.01 0.01 0.01 0.02 0.03 0.04 0.05 0.04 0.03 0.03 0.02 0.02 0.02 0.02 0.02 0.03 0.03 0.04 0.04 0.06 0.07 0.06 0.06 0.05 0.05 0.07 0.08 0.07 0.09 0.09 0.09 0.07 0.06 0.05 0.04 0.03 0.02 0.01 0.02 0.02 0.03 0.06
0.02 0.01 0.01 0.02 0.01 0.02 0.03 0.04 0.05 0.05 0.03 0.02 0.02 0.02 0.02 0.02 0.03 0.04 0.06 0.06 0.06 0.05 0.05 0.06 0.04 0.04 0.05 0.05 0.07 0.07 0.07 0.07 0.07 0.07 0.07 0.06 0.04 0.03 0.02 0.02 0.02 0.02 0.04
0.02 0.01 0.02 0.03 0.02 0.01 0.02 0.03 0.04 0.05 0.06 0.05 0.03 0.02 0.02 0.02 0.02 0.03 0.04 0.05 0.06 0.06 0.05 0.04 0.03 0.03 0.03 0.03 0.04 0.05 0.06 0.07 0.06 0.08 0.08 0.07 0.06 0.05 0.05 0.04 0.03 0.04 0.03
0.03 0.03 0.03 0.04 0.03 0.02 0.03 0.03 0.03 0.03 0.04 0.06 0.06 0.05 0.03 0.02 0.02 0.02 0.03 0.05 0.06 0.05 0.04 0.03 0.03 0.03 0.03 0.03 0.02 0.03 0.04 0.05 0.06 0.09 0.09 0.09 0.08 0.06 0.06 0.04 0.03 0.03 0.02
0.03 0.04 0.03 0.03 0.04 0.04 0.04 0.03 0.03 0.03 0.02 0.02 0.03 0.04 0.06 0.06 0.05 0.04 0.03 0.03 0.04 0.04 0.04 0.04 0.03 0.02 0.03 0.04 0.04 0.03 0.03 0.03 0.05 0.08 0.10 0.09 0.08 0.08 0.07 0.06 0.05 0.03 0.02
0.04 0.05 0.04 0.03 0.04 0.05 0.05 0.04 0.03 0.02 0.02 0.01 0.02 0.03 0.04 0.05 0.06 0.06 0.06 0.04 0.04 0.04 0.04 0.05 0.03 0.02 0.02 0.03 0.05 0.06 0.04 0.04 0.03 0.05 0.06 0.07 0.09 0.09 0.09 0.10 0.09 0.06 0.03
0.05 0.06 0.06 0.05 0.04 0.04 0.04 0.04 0.03 0.02 0.02 0.02 0.02 0.03 0.04 0.05 0.05 0.05 0.05 0.05 0.05 0.05 0.05 0.04 0.04 0.03 0.02 0.02 0.02 0.05 0.07 0.05 0.03 0.04 0.05 0.05 0.08 0.07 0.07 0.08 0.10 0.10 0.07
0.10 0.11 0.12 0.11 0.09 0.06 0.05 0.05 0.06 0.06 0.06 0.05 0.04 0.04 0.04 0.04 0.05 0.05 0.05 0.05 0.05 0.04 0.03 0.03 0.03 0.02 0.02 0.01 0.01 0.02 0.06 0.10 0.07 0.04 0.05 0.04 0.07 0.07 0.07 0.06 0.07 0.08 0.08
0.08 0.09 0.11 0.13 0.12 0.10 0.08 0.07 0.07 0.08 0.08 0.06 0.05 0.05 0.04 0.04 0.04 0.04 0.04 0.05 0.04 0.04 0.04 0.04 0.03 0.02 0.01 0.01 0.02 0.02 0.03 0.06 0.09 0.08 0.07 0.06 0.07 0.11 0.11 0.09 0.07 0.05 0.05
0.05 0.05 0.07 0.11 0.11 0.09 0.10 0.09 0.09 0.09 0.07 0.07 0.06 0.06 0.06 0.06 0.06 0.06 0.06 0.05 0.03 0.03 0.04 0.05 0.03 0.02 0.02 0.02 0.03 0.03 0.03 0.04 0.05 0.09 0.11 0.07 0.06 0.07 0.08 0.07 0.06 0.06 0.06
0.05 0.05 0.05 0.08 0.08 0.07 0.07 0.07 0.07 0.07 0.06 0.05 0.07 0.07 0.07 0.06 0.05 0.06 0.05 0.04 0.03 0.02 0.03 0.03 0.03 0.03 0.04 0.04 0.05 0.06 0.06 0.07 0.06 0.06 0.09 0.10 0.08 0.05 0.05 0.05 0.05 0.07 0.06
0.07 0.07 0.06 0.07 0.07 0.06 0.05 0.05 0.06 0.04 0.04 0.04 0.05 0.05 0.06 0.05 0.05 0.04 0.03 0.03 0.02 0.02 0.03 0.02 0.03 0.04 0.05 0.06 0.09 0.07 0.05 0.06 0.05 0.05 0.06 0.07 0.07 0.06 0.06 0.05 0.04 0.04 0.05
MSLP
1013.17 1013.11 1013.00 1012.85 1012.67 1012.50 1012.33 1012.18 1012.02 1011.86 1011.66 1011.43 1011.15 1010.83 1010.50 1010.15 1009.84 1009.57 1009.36 1009.23 1009.17 1009.18 1009.24 1009.33 1009.44 1009.53 1009.61 1009.65 1009.67 1009.66 1009.65 1009.65 1009.70 1009.81 1010.01 1010.30 1010.68 1011.14 1011.66 1012.21 1012.79 1013.36 1013.92
1012.81 1012.79 1012.71 1012.60 1012.47 1012.32 1012.17 1012.02 1011.87 1011.71 1011.52 1011.29 1011.02 1010.70 1010.34 1009.97 1009.59 1009.25 1008.96 1008.75 1008.63 1008.60 1008.65 1008.76 1008.90 1009.05 1009.18 1009.28 1009.33 1009.34 1009.33 1009.33 1009.37 1009.47 1009.66 1009.94 1010.32 1010.77 1011.27 1011.81 1012.36 1012.91 1013.46
1012.33 1012.33 1012.29 1012.23 1012.15 1012.05 1011.94 1011.82 1011.70 1011.55 1011.38 1011.18 1010.92 1010.60 1010.23 1009.82 1009.39 1008.96 1008.58 1008.28 1008.08 1008.00 1008.02 1008.14 1008.32 1008.53 1008.72 1008.87 1008.97 1009.02 1009.03 1009.04 1009.08 1009.18 1009.36 1009.64 1010.00 1010.43 1010.91 1011.41 1011.93 1012.44 1012.95
1011.73 1011.72 1011.71 1011.70 1011.68 1011.65 1011.60 1011.54 1011.46 1011.36 1011.23 1011.05 1010.82 1010.51 1010.13 1009.69 1009.20 1008.69 1008.22 1007.83 1007.54 1007.39 1007.38 1007.50 1007.70 1007.95 1008.20 1008.41 1008.56 1008.65 1008.69 1008.71 1008.76 1008.86 1009.04 1009.31 1009.66 1010.07 1010.52 1010.98 1011.45 1011.91 1012.38
1011.05 1011.01 1011.01 1011.05 1011.09 1011.13 1011.16 1011.17 1011.16 1011.11 1011.03 1010.90 1010.70 1010.41 1010.03 1009.57 1009.03 1008.46 1007.90 1007.42 1007.05 1006.83 1006.77 1006.86 1007.06 1007.33 1007.62 1007.86 1008.05 1008.17 1008.24 1008.28 1008.34 1008.45 1008.63 1008.90 1009.24 1009.63 1010.06 1010.49 1010.91 1011.33 1011.75
1010.34 1010.26 1010.26 1010.32 1010.42 1010.54 1010.64 1010.73 1010.79 1010.82 1010.80 1010.72 1010.56 1010.31 1009.95 1009.47 1008.90 1008.28 1007.66 1007.09 1006.64 1006.34 1006.22 1006.26 1006.44 1006.70 1006.98 1007.24 1007.44 1007.57 1007.64 1007.70 1007.77 1007.89 1008.08 1008.36 1008.71 1009.10 1009.52 1009.93 1010.32 1010.70 1011.07
1009.71 1009.58 1009.56 1009.64 1009.79 1009.96 1010.14 1010.30 1010.43 1010.53 1010.58 1010.56 1010.46 1010.25 1009.91 1009.45 1008.87 1008.22 1007.54 1006.91 1006.38 1006.01 1005.81 1005.78 1005.90 1006.11 1006.35 1006.58 1006.75 1006.86 1006.93 1006.98 1007.05 1007.18 1007.39 1007.69 1008.06 1008.47 1008.90 1009.31 1009.69 1010.05 1010.39
1009.27 1009.09 1009.05 1009.14 1009.31 1009.52 1009.75 1009.98 1010.17 1010.33 1010.44 1010.48 1010.43 1010.27 1009.98 1009.54 1008.98 1008.31 1007.61 1006.93 1006.34 1005.88 1005.60 1005.48 1005.51 1005.63 1005.79 1005.94 1006.05 1006.11 1006.14 1006.16 1006.22 1006.36 1006.58 1006.91 1007.31 1007.75 1008.21 1008.65 1009.04 1009.40 1009.74
1009.11 1008.90 1008.85 1008.93 1009.11 1009.34 1009.60 1009.86 1010.09 1010.29 1010.45 1010.54 1010.55 1010.44 1010.19 1009.80 1009.26 1008.61 1007.90 1007.19 1006.54 1006.02 1005.65 1005.42 1005.34 1005.34 1005.38 1005.42 1005.43 1005.40 1005.36 1005.33 1005.36 1005.48 1005.72 1006.06 1006.50 1006.98 1007.49 1007.96 1008.39 1008.77 1009.11
1009.31 1009.09 1009.02 1009.09 1009.26 1009.49 1009.75 1010.01 1010.25 1010.48 1010.66 1010.79 1010.84 1010.78 1010.58 1010.24 1009.74 1009.12 1008.42 1007.70 1007.02 1006.43 1005.97 1005.64 1005.43 1005.30 1005.20 1005.09 1004.97 1004.83 1004.68 1004.58 1004.55 1004.64 1004.86 1005.21 1005.67 1006.19 1006.73 1007.25 1007.72 1008.13 1008.50
1009.85 1009.65 1009.58 1009.63 1009.78 1009.98 1010.20 1010.44 1010.67 1010.88 1011.07 1011.22 1011.29 1011.27 1011.13 1010.83 1010.39 1009.81 1009.14 1008.43 1007.74 1007.10 1006.57 1006.14 1005.80 1005.52 1005.27 1005.01 1004.74 1004.46 1004.19 1003.98 1003.87 1003.90 1004.07 1004.40 1004.85 1005.38 1005.95 1006.50 1007.01 1007.47 1007.87
1010.68 1010.51 1010.45 1010.49 1010.60 1010.75 1010.92 1011.11 1011.29 1011.47 1011.65 1011.79 1011.88 1011.89 1011.79 1011.55 1011.16 1010.64 1010.01 1009.32 1008.63 1007.97 1007.38 1006.86 1006.41 1006.00 1005.60 1005.19 1004.77 1004.34 1003.94 1003.60 1003.38 1003.30 1003.40 1003.67 1004.08 1004.58 1005.15 1005.71 1006.25 1006.74 1007.17
1011.70 1011.58 1011.53 1011.55 1011.62 1011.71 1011.82 1011.93 1012.06 1012.19 1012.33 1012.45 1012.55 1012.58 1012.51 1012.32 1011.99 1011.52 1010.95 1010.30 1009.63 1008.96 1008.33 1007.75 1007.21 1006.69 1006.16 1005.62 1005.05 1004.48 1003.93 1003.46 1003.10 1002.90 1002.89 1003.05 1003.37 1003.81 1004.33 1004.88 1005.42 1005.92 1006.39
1012.78 1012.71 1012.69 1012.69 1012.71 1012.74 1012.78 1012.82 1012.88 1012.95 1013.05 1013.14 1013.23 1013.26 1013.22 1013.07 1012.80 1012.40 1011.88 1011.29 1010.65 1009.99 1009.35 1008.73 1008.13 1007.52 1006.90 1006.24 1005.55 1004.86 1004.18 1003.56 1003.06 1002.72 1002.55 1002.58 1002.77 1003.11 1003.54 1004.03 1004.54 1005.04 1005.52
1013.81 1013.80 1013.79 1013.78 1013.77 1013.75 1013.72 1013.70 1013.69 1013.70 1013.75 1013.81 1013.88 1013.92 1013.90 1013.78 1013.55 1013.21 1012.75 1012.21 1011.61 1010.99 1010.35 1009.72 1009.08 1008.43 1007.74 1007.01 1006.23 1005.43 1004.64 1003.90 1003.26 1002.76 1002.43 1002.29 1002.33 1002.51 1002.83 1003.22 1003.67 1004.14 1004.61
1014.72 1014.75 1014.76 1014.75 1014.72 1014.66 1014.59 1014.51 1014.45 1014.41 1014.41 1014.44 1014.48 1014.51 1014.50 1014.41 1014.22 1013.92 1013.52 1013.03 1012.48 1011.89 1011.28 1010.66 1010.01 1009.34 1008.63 1007.86 1007.03 1006.16 1005.29 1004.44 1003.68 1003.03 1002.54 1002.23 1002.09 1002.11 1002.27 1002.54 1002.90 1003.31 1003.75
1015.47 1015.54 1015.57 1015.57 1015.54 1015.46 1015.36 1015.25 1015.14 1015.06 1015.02 1015.02 1015.04 1015.06 1015.04 1014.97 1014.80 1014.54 1014.18 1013.74 1013.23 1012.68 1012.10 1011.50 1010.88 1010.22 1009.51 1008.74 1007.90 1007.01 1006.09 1005.18 1004.32 1003.55 1002.91 1002.43 1002.11 1001.95 1001.95 1002.08 1002.32 1002.64 1003.04
1016.08 1016.18 1016.25 1016.27 1016.25 1016.17 1016.06 1015.93 1015.80 1015.69 1015.62 1015.58 1015.57 1015.57 1015.54 1015.47 1015.31 1015.07 1014.74 1014.34 1013.86 1013.35 1012.81 1012.25 1011.66 1011.04 1010.36 1009.62 1008.80 1007.93 1007.00 1006.06 1005.14 1004.28 1003.52 1002.89 1002.41 1002.09 1001.92 1001.89 1002.00 1002.22 1002.54
1016.60 1016.74 1016.85 1016.90 1016.90 1016.84 1016.74 1016.60 1016.45 1016.32 1016.22 1016.15 1016.10 1016.07 1016.02 1015.93 1015.78 1015.55 1015.24 1014.85 1014.41 1013.93 1013.43 1012.90 1012.36 1011.78 1011.16 1010.47 1009.71 1008.87 1007.98 1007.04 1006.10 1005.18 1004.34 1003.59 1002.98 1002.50 1002.18 1002.01 1001.98 1002.09 1002.30
1017.09 1017.27 1017.42 1017.51 1017.54 1017.50 1017.41 1017.27 1017.11 1016.96 1016.82 1016.72 1016.64 1016.57 1016.49 1016.38 1016.22 1015.98 1015.68 1015.31 1014.89 1014.44 1013.97 1013.48 1012.98 1012.46 1011.90 1011.28 1010.59 1009.82 1008.97 1008.07 1007.13 1006.20 1005.30 1004.48 1003.76 1003.16 1002.71 1002.40 1002.24 1002.22 1002.33
1017.58 1017.81 1017.99 1018.13 1018.19 1018.18 1018.09 1017.95 1017.78 1017.60 1017.43 1017.29 1017.16 1017.06 1016.95 1016.81 1016.63 1016.39 1016.09 1015.73 1015.32 1014.90 1014.45 1014.00 1013.55 1013.08 1012.58 1012.03 1011.41 1010.72 1009.94 1009.09 1008.18 1007.26 1006.34 1005.47 1004.68 1004.00 1003.43 1003.01 1002.73 1002.60 1002.59
1018.11 1018.37 1018.60 1018.76 1018.85 1018.86 1018.78 1018.63 1018.44 1018.23 1018.02 1017.83 1017.67 1017.52 1017.38 1017.21 1017.02 1016.77 1016.46 1016.11 1015.72 1015.31 1014.89 1014.47 1014.06 1013.64 1013.19 1012.70 1012.16 1011.53 1010.82 1010.03 1009.18 1008.28 1007.37 1006.49 1005.66 1004.91 1004.28 1003.76 1003.38 1003.14 1003.02
1018.66 1018.95 1019.20 1019.39 1019.50 1019.51 1019.43 1019.26 1019.05 1018.80 1018.56 1018.33 1018.13 1017.94 1017.77 1017.58 1017.37 1017.11 1016.81 1016.46 1016.09 1015.69 1015.29 1014.90 1014.51 1014.12 1013.72 1013.29 1012.80 1012.23 1011.59 1010.86 1010.06 1009.20 1008.32 1007.45 1006.61 1005.84 1005.15 1004.58 1004.12 1003.79 1003.57
1019.20 1019.51 1019.79 1019.99 1020.10 1020.10 1020.01 1019.82 1019.58 1019.30 1019.03 1018.76 1018.53 1018.31 1018.11 1017.91 1017.69 1017.43 1017.13 1016.79 1016.42 1016.03 1015.65 1015.27 1014.90 1014.53 1014.16 1013.76 1013.31 1012.80 1012.21 1011.54 1010.79 1009.98 1009.14 1008.30 1007.48 1006.71 1006.02 1005.41 1004.90 1004.50 1004.20
1019.70 1020.04 1020.32 1020.52 1020.62 1020.62 1020.50 1020.29 1020.02 1019.72 1019.42 1019.13 1018.87 1018.64 1018.42 1018.21 1017.98 1017.71 1017.41 1017.08 1016.71 1016.33 1015.94 1015.57 1015.20 1014.84 1014.48 1014.10 1013.68 1013.21 1012.66 1012.04 1011.35 1010.61 1009.82 1009.03 1008.26 1007.52 1006.83 1006.22 1005.70 1005.25 1004.88
1020.16 1020.50 1020.78 1020.97 1021.06 1021.03 1020.90 1020.67 1020.38 1020.07 1019.75 1019.45 1019.18 1018.93 1018.71 1018.48 1018.24 1017.98 1017.67 1017.33 1016.95 1016.57 1016.17 1015.79 1015.41 1015.05 1014.69 1014.31 1013.91 1013.46 1012.95 1012.38 1011.75 1011.08 1010.37 1009.64 1008.93 1008.25 1007.60 1007.02 1006.49 1006.02 1005.61
Thickness
5774 5773 5772 5771 5771 5770 5770 5769 5768 5768 5767 5766 5766 5765 5764 5763 5762 5761 5761 5760 5759 5758 5757 5755 5753 5752 5751 5749 5748 5746 5745 5744 5743 5742 5740 5739 5737 5735 5734 5733 5731 5730 5729
5775 5774 5773 5772 5772 5771 5771 5770 5769 5768 5767 5767 5766 5765 5764 5763 5763 5761 5760 5759 5758 5758 5757 5755 5753 5752 5751 5750 5748 5747 5745 5744 5743 5742 5741 5739 5737 5735 5734 5733 5731 5730 5728
5776 5775 5774 5773 5773 5772 5772 5771 5770 5769 5767 5767 5766 5765 5765 5764 5762 5761 5760 5759 5758 5757 5756 5755 5753 5752 5752 5750 5749 5747 5746 5745 5743 5742 5741 5739 5737 5735 5734 5733 5731 5729 5728
5778 5776 5775 5774 5773 5773 5772 5770 5769 5767 5766 5765 5764 5765 5764 5764 5762 5761 5760 5759 5758 5757 5756 5755 5754 5753 5752 5751 5749 5748 5747 5745 5744 5742 5741 5739 5737 5735 5734 5732 5731 5729 5728
5778 5777 5776 5775 5774 5773 5771 5771 5768 5767 5764 5764 5764 5763 5763 5762 5761 5761 5760 5759 5758 5757 5756 5755 5754 5753 5752 5750 5749 5748 5747 5745 5743 5742 5740 5739 5737 5735 5734 5732 5731 5729 5728
5779 5777 5776 5774 5774 5772 5770 5769 5767 5766 5765 5764 5763 5761 5760 5761 5760 5760 5759 5759 5758 5757 5756 5754 5753 5752 5750 5750 5748 5747 5746 5744 5743 5742 5740 5738 5737 5735 5734 5732 5731 5729 5728
5778 5777 5776 5774 5773 5770 5769 5768 5766 5764 5762 5763 5758 5755 5756 5758 5758 5759 5759 5758 5757 5756 5755 5754 5752 5751 5749 5748 5747 5746 5744 5743 5742 5741 5740 5738 5736 5735 5733 5731 5730 5729 5727
5777 5776 5775 5773 5771 5769 5768 5766 5764 5761 5760 5760 5754 5748 5744 5747 5752 5757 5757 5756 5755 5755 5754 5752 5750 5749 5748 5747 5746 5745 5743 5742 5741 5740 5738 5737 5735 5734 5732 5730 5729 5727 5726
5776 5775 5774 5773 5771 5769 5766 5765 5763 5759 5755 5756 5755 5748 5740 5736 5741 5748 5752 5753 5752 5752 5752 5751 5749 5748 5746 5745 5743 5743 5742 5740 5739 5738 5736 5734 5733 5732 5730 5729 5727 5726 5725
5775 5774 5773 5772 5770 5769 5766 5764 5763 5759 5756 5752 5752 5752 5749 5745 5738 5737 5744 5748 5749 5749 5749 5749 5748 5746 5744 5743 5742 5741 5740 5738 5736 5735 5733 5732 5731 5729 5728 5727 5726 5725 5723
5773 5772 5771 5770 5768 5767 5765 5763 5761 5759 5756 5753 5750 5748 5746 5744 5742 5735 5733 5737 5742 5745 5746 5745 5745 5744 5742 5741 5740 5739 5737 5735 5733 5732 5731 5729 5728 5727 5726 5724 5723 5722 5721
5770 5769 5768 5767 5766 5764 5763 5761 5760 5757 5755 5753 5750 5748 5744 5740 5737 5735 5731 5731 5733 5738 5742 5742 5741 5740 5740 5739 5738 5736 5735 5733 5731 5729 5728 5726 5725 5724 5722 5721 5720 5719 5718
5766 5766 5766 5765 5763 5762 5761 5760 5758 5755 5754 5751 5749 5746 5744 5742 5740 5736 5731 5729 5729 5733 5735 5736 5737 5737 5737 5736 5734 5733 5732 5730 5728 5726 5724 5723 5722 5721 5719 5718 5717 5716 5715
5765 5765 5764 5762 5761 5760 5759 5757 5755 5753 5752 5749 5748 5745 5742 5741 5739 5736 5732 5727 5723 5723 5726 5728 5732 5732 5732 5732 5731 5729 5728 5726 5725 5723 5721 5720 5719 5717 5716 5715 5714 5713 5712
5765 5763 5761 5759 5758 5757 5756 5753 5751 5749 5748 5747 5745 5743 5740 5739 5737 5735 5733 5729 5721 5715 5716 5722 5724 5727 5727 5727 5726 5725 5723 5722 5721 5720 5718 5717 5715 5714 5713 5711 5710 5709 5708
5762 5760 5758 5756 5755 5754 5752 5750 5748 5746 5744 5743 5741 5739 5736 5735 5734 5732 5730 5727 5724 5718 5714 5718 5719 5721 5722 5722 5721 5720 5720 5719 5717 5716 5715 5713 5712 5710 5708 5707 5705 5704 5703
5759 5757 5755 5753 5751 5750 5749 5746 5744 5742 5740 5738 5737 5735 5733 5732 5729 5728 5726 5724 5721 5717 5712 5713 5715 5716 5715 5715 5715 5714 5714 5713 5712 5711 5710 5709 5708 5706 5704 5703 5701 5699 5699
5756 5754 5752 5749 5747 5746 5744 5742 5739 5737 5735 5732 5731 5729 5727 5727 5724 5723 5720 5718 5717 5715 5710 5707 5708 5708 5708 5709 5708 5707 5707 5707 5706 5705 5704 5703 5702 5701 5699 5697 5696 5695 5694
5750 5749 5747 5745 5743 5741 5739 5737 5735 5733 5731 5729 5726 5724 5722 5721 5719 5717 5715 5713 5711 5711 5708 5704 5702 5702 5701 5701 5700 5700 5700 5700 5700 5699 5698 5697 5696 5695 5693 5692 5690 5689 5688
5745 5743 5741 5740 5738 5736 5734 5732 5729 5727 5725 5724 5722 5720 5718 5716 5714 5712 5710 5708 5706 5704 5702 5698 5696 5694 5693 5693 5692 5690 5689 5690 5691 5692 5690 5689 5688 5687 5686 5685 5684 5683 5682
5740 5737 5735 5733 5732 5730 5729 5726 5724 5722 5719 5717 5716 5715 5714 5713 5711 5709 5706 5703 5701 5697 5695 5692 5689 5687 5685 5684 5683 5683 5681 5681 5682 5683 5682 5682 5681 5680 5679 5678 5677 5676 5675
5733 5730 5727 5725 5723 5723 5722 5720 5719 5716 5713 5711 5709 5709 5709 5708 5707 5704 5702 5701 5698 5694 5690 5687 5684 5681 5680 5679 5678 5676 5673 5671 5671 5675 5673 5673 5673 5672 5672 5671 5671 5670 5669
5727 5724 5721 5719 5716 5715 5715 5713 5712 5710 5707 5705 5704 5703 5703 5703 5701 5698 5696 5695 5693 5692 5690 5686 5681 5679 5677 5676 5673 5670 5667 5666 5665 5668 5666 5664 5665 5664 5665 5665 5664 5663 5662
5721 5718 5715 5713 5710 5709 5708 5706 5705 5703 5701 5699 5698 5697 5696 5695 5695 5692 5690 5688 5687 5686 5685 5683 5680 5678 5677 5675 5672 5668 5664 5662 5661 5661 5660 5656 5657 5657 5658 5658 5657 5656 5654
5716 5713 5711 5707 5704 5702 5701 5699 5698 5695 5692 5692 5692 5691 5690 5689 5689 5686 5683 5681 5679 5680 5680 5679 5678 5676 5674 5672 5668 5663 5658 5654 5651 5653 5653 5650 5649 5649 5649 5649 5649 5648 5647
5711 5708 5705 5702 5699 5696 5694 5692 5689 5687 5684 5684 5685 5685 5683 5683 5681 5679 5677 5675 5672 5672 5672 5671 5670 5669 5667 5665 5663 5659 5655 5649 5645 5644 5646 5643 5641 5640 5639 5641 5641 5640 5639